Portada
METAR-TAF:

METAR-TAF

Aeroports :

Esmeraldas, Equador

latitud: 00-58-43N, longitud: 079-37-36W, altitud: 10 m

Observació

L'informe es va fer fa 57 minuts, a les 17:00 UTC
Vent 7 kt amb direcció variable
Temperatura 27°C
Humitat 84%
Pressió 1014 hPa
Visibilitat 10 km o més
Cel ennuvolat a una alçada de 2600 ft
Cel ennuvolat a una alçada de 10000 ft

METAR: SETN 241700Z VRB07KT 9999 BKN026 BKN100 27/24 Q1014 A2994

Hora: 12:57 (17:57 UTC)


TAF: manca

Observacions i pronòstics meteorològics de més de 4000 aeroports (METAR i TAF).

Les estacions disponibles són els punts grocs i vermells al mapa.

Posi el ratolí al punt desitjat per veure el nom de l'estació.

Feu clic per veure les observacions i els pronòstics meteorològics.

Per canviar el mapa: feu clic els botons verds amb una creu de color negre per apropar; al botó verd amb un guió per allunyar la imatge; o en les fletxes verdes per a mapes adjacents.


METAR-TAF: